Regional Weather Roundup
Issued by NWS Goodland, KS

Home | Current Version | Previous Version | Graphics & Text | Print | Product List | Glossary On
Versions: 1 2 3 4 5 6 7 8 9 10 11 12 13 14 15 16 17 18 19 20 21 22 23 24 25 26 27 28 29 30 31 32 33 34 35 36 37 38 39 40 41 42 43 44 45 46 47 48 49 50
000
ASUS43 KGLD 260259
RWRGLD

GOODLAND FORECAST AREA HOURLY WEATHER ROUNDUP
NATIONAL WEATHER SERVICE GOODLAND KS
800 PM MST TUE NOV 25 2014

...OFFICIAL OBSERVATIONS...

CITY           SKY/WX    TMP DP  RH WIND       PRES   REMARKS
GOODLAND KS    CLOUDY    40  32  73 N9        29.94R
HILL CITY KS   CLOUDY    44  15  31 W8        29.90R
IMPERIAL NEB   CLOUDY    40  31  70 NW18      29.93R
MCCOOK NEB     CLOUDY    44  28  53 N12       29.90R
AKRON CO       LGT SNOW  33  31  92 N15       29.97R FOG
BURLINGTON CO  CLOUDY    42  23  46 N12       29.95R
LIMON CO       CLOUDY    31  17  56 CALM      29.94R
$$

...UNOFFICIAL OBSERVATIONS...

CITY           SKY/WX    TMP DP  RH WIND       PRES   REMARKS
COLBY KS       DRIZZLE   43  37  81 NW10      29.94R
GOVE KS          N/A     39  32  76 MISG        N/A
NORTON KS      CLOUDY    48  18  29 W15       29.88R
SHARON SPRINGS   N/A     41  22  46 N7          N/A
TRIBUNE KS     MOCLDY    32  19  59 NW8       29.93S
TRENTON NEB      N/A     44  32  63 NW14        N/A
YUMA CO          N/A     37  30  75 N16         N/A
$$


USA.gov is the U.S. government's official web portal to all federal, state and local government web resources and services.